JCSAT-5A

Last updated on Sat Aug 15 2026 00:02:57 GMT+0000 (Coordinated Universal Time)

1 29045U 06010A 26226.61587640 -.00000343 00000+0 00000+0 0 9991 2 29045 1.2554 83.4907 0001415 30.7548 202.5546 1.00272220 74357
UTC large
Height (km)
Speed (km/s)
/
Latitude / Longitude
Inclination (degrees)
Orbital Period (minutes)
Azimuth
Elevation
Range (km)
Doppler Factor

Next 0 passes for location: London (51.5072 / 0.1276)

No passes found over London.
JCSAT-5A